EW2281 Weather Reports


Display with metric or nautical units.
time (UTC)temp
F
wind
direction
speed
MPH
gust
MPH
rain 1hr
in
rain 24hr
in
rain mn
in
humidity
%
barometer
mb
20260510030558 56 299 0.0 0.0 0.00 0.24 0.24 87 964.8
20260510030051 56 296 0.0 0.0 0.00 0.24 0.24 87 964.6
20260510025546 56 259 0.0 3.0 0.00 0.24 0.24 87 964.4
20260510025040 56 159 0.0 3.0 0.00 0.24 0.24 87 964.3
20260510024534 56 207 0.0 3.0 0.00 0.24 0.24 87 964.3
20260510024028 57 302 0.0 1.0 0.00 0.24 0.24 87 964.2
20260510023752 57 133 0.0 2.0 0.00 0.24 0.24 87 964.2
20260510023015 57 255 0.0 3.0 0.00 0.24 0.24 87 964.0
20260510022510 56 232 0.0 3.0 0.00 0.24 0.24 87 964.0
20260510022004 56 11 0.0 2.0 0.00 0.24 0.24 87 964.0
20260510021458 56 175 0.0 4.0 0.00 0.24 0.24 87 964.0
20260510020952 56 165 0.0 4.0 0.00 0.24 0.24 87 964.0
20260510020447 56 214 0.0 0.0 0.00 0.24 0.24 87 964.0
20260510015947 56 204 0.0 2.0 0.00 0.24 0.24 87 964.1
20260510015447 56 164 0.0 2.0 0.00 0.24 0.24 86 964.0
20260510015442 56 159 0.0 1.0 0.00 0.24 0.24 86 964.0
20260510014445 56 18 0.0 0.0 0.00 0.24 0.24 86 964.0
20260510013943 56 5 0.0 2.0 0.00 0.24 0.24 86 964.0
20260510013441 56 5 0.0 2.0 0.00 0.24 0.24 87 963.9
20260510012941 56 192 0.0 1.0 0.00 0.24 0.24 87 963.9
20260510012442 56 271 0.0 1.0 0.00 0.24 0.24 88 964.0
20260510011940 55 233 0.0 0.0 0.00 0.24 0.24 88 963.9
20260510011437 55 294 0.0 0.0 0.00 0.24 0.24 88 964.0
20260510010938 55 240 0.0 0.0 0.00 0.24 0.24 88 963.8
20260510010438 55 241 0.0 0.0 0.00 0.24 0.24 88 963.6
20260510005935 55 216 0.0 0.0 0.00 0.24 0.24 88 963.6
20260510005651 56 212 0.0 0.0 0.00 0.24 0.24 87 963.5
20260510004934 56 212 0.0 0.0 0.00 0.24 0.24 87 963.5
20260510004433 56 212 0.0 0.0 0.00 0.24 0.24 87 963.5
20260510004159 56 196 0.0 0.0 0.00 0.24 0.24 87 963.5
20260510003433 57 275 0.0 0.0 0.00 0.24 0.24 86 963.4
20260510002927 57 275 0.0 0.0 0.00 0.24 0.24 85 963.4
20260510002421 58 275 0.0 0.0 0.00 0.24 0.24 84 963.4
20260510001914 58 275 0.0 0.0 0.00 0.24 0.24 84 963.5
20260510001409 58 275 0.0 0.0 0.00 0.24 0.24 83 963.4
20260510000903 59 271 0.0 0.0 0.00 0.24 0.24 83 963.3
20260510000400 59 289 0.0 0.0 0.00 0.24 0.24 82 963.2
20260509235857 60 299 0.0 0.0 0.00 0.24 0.24 81 963.2
20260509235629 60 207 0.0 0.0 0.00 0.24 0.24 80 963.1
20260509234858 61 205 0.0 0.0 0.00 0.24 0.24 80 963.0
20260509234627 61 190 0.0 2.0 0.00 0.24 0.24 78 962.8
20260509233853 62 175 0.0 4.0 0.00 0.24 0.24 77 962.8
20260509233353 63 172 0.0 4.0 0.00 0.24 0.24 75 962.8
20260509232853 63 296 0.0 5.0 0.00 0.24 0.24 75 962.8
20260509232351 64 211 0.0 5.0 0.00 0.24 0.24 74 962.9
20260509232115 64 196 0.0 5.0 0.00 0.24 0.24 74 962.8
20260509231348 65 244 1.0 5.0 0.00 0.24 0.24 73 962.7
20260509230849 65 166 1.0 4.0 0.00 0.24 0.24 72 962.6
20260509230615 65 151 1.0 4.0 0.00 0.24 0.24 71 962.6
20260509225846 66 105 0.0 4.0 0.00 0.24 0.24 71 962.6
20260509225344 66 38 0.0 3.0 0.00 0.24 0.24 73 962.7
20260509224842 65 168 0.0 4.0 0.00 0.24 0.24 73 962.7
20260509224344 65 211 0.0 4.0 0.00 0.24 0.24 75 962.9
20260509223842 64 344 1.0 7.0 0.00 0.24 0.24 76 962.9
20260509223342 64 193 1.0 7.0 0.00 0.24 0.24 77 963.0
20260509222837 63 189 0.0 5.0 0.00 0.24 0.24 78 963.1
20260509222336 63 209 0.0 2.0 0.00 0.24 0.24 78 963.2
20260509221838 63 148 0.0 2.0 0.00 0.24 0.24 79 963.1
20260509221335 63 167 0.0 2.0 0.00 0.24 0.24 79 963.1
20260509221058 63 116 0.0 3.0 0.00 0.24 0.24 80 963.1
20260509220332 63 207 0.0 3.0 0.00 0.24 0.24 78 963.0
20260509220052 64 172 0.0 4.0 0.00 0.24 0.24 78 963.1
20260509215333 63 142 0.0 4.0 0.00 0.24 0.24 78 963.0
20260509214832 64 211 0.0 5.0 0.00 0.24 0.24 80 963.0
20260509214332 63 290 0.0 5.0 0.00 0.24 0.24 80 963.0
20260509213828 63 192 0.0 2.0 0.00 0.24 0.24 78 963.0
20260509213330 63 175 0.0 2.0 0.00 0.24 0.24 79 963.1
20260509212828 64 172 0.0 4.0 0.00 0.24 0.24 78 963.1
20260509212328 64 175 0.0 4.0 0.00 0.24 0.24 77 963.1
20260509211824 64 195 0.0 3.0 0.00 0.24 0.24 77 963.1
20260509211326 63 210 0.0 2.0 0.00 0.24 0.24 78 963.1
20260509211041 63 108 0.0 2.0 0.00 0.24 0.24 78 963.2
20260509210324 63 163 0.0 5.0 0.00 0.24 0.24 77 963.2
20260509210048 64 161 1.0 5.0 0.00 0.24 0.24 76 963.2
20260509205322 65 190 1.0 4.0 0.00 0.24 0.24 76 963.3
20260509204823 64 212 1.0 4.0 0.00 0.24 0.24 77 963.3
20260509204323 64 290 1.0 4.0 0.00 0.24 0.24 79 963.3
20260509203820 63 219 1.0 4.0 0.00 0.24 0.24 80 963.4
20260509203325 63 219 0.0 4.0 0.00 0.25 0.24 82 963.5
20260509202823 63 211 1.0 4.0 0.00 0.25 0.24 81 963.6
20260509202324 62 345 1.0 5.0 0.00 0.25 0.24 81 963.7
20260509201824 62 220 1.0 5.0 0.00 0.25 0.24 78 963.7
20260509201320 62 183 1.0 4.0 0.00 0.25 0.24 81 963.7
20260509200820 63 211 1.0 4.0 0.00 0.25 0.24 80 963.6
20260509200321 63 223 0.0 3.0 0.00 0.25 0.24 81 963.8
20260509200043 63 210 0.0 3.0 0.00 0.25 0.24 83 963.8
20260509195321 62 207 1.0 4.0 0.00 0.25 0.24 85 963.8
20260509194822 61 195 1.0 4.0 0.00 0.25 0.24 86 963.9
20260509194540 61 291 0.0 4.0 0.00 0.25 0.24 85 964.1
20260509194043 61 239 1.0 6.0 0.00 0.25 0.24 89 964.1
20260509193322 60 183 1.0 6.0 0.00 0.25 0.24 90 964.2
20260509192820 59 157 0.0 4.0 0.00 0.25 0.24 93 964.2
20260509192321 58 179 0.0 4.0 0.00 0.25 0.24 96 964.3
20260509191820 56 178 0.0 1.0 0.00 0.25 0.24 96 964.4
20260509191321 55 234 0.0 0.0 0.00 0.25 0.24 97 964.5
20260509190822 54 227 0.0 0.0 0.00 0.25 0.24 96 964.6
20260509190320 54 194 0.0 3.0 0.00 0.25 0.24 96 964.7
20260509185821 54 194 0.0 3.0 0.01 0.25 0.24 96 964.7
20260509185322 54 322 0.0 2.0 0.01 0.25 0.24 96 964.7
20260509184822 54 177 0.0 1.0 0.01 0.25 0.24 96 964.7
20260509184321 54 176 0.0 1.0 0.01 0.25 0.24 96 964.7
20260509183822 54 175 0.0 1.0 0.01 0.25 0.24 96 964.6
20260509183321 54 205 0.0 0.0 0.01 0.25 0.24 96 964.7
20260509182822 54 206 0.0 2.0 0.01 0.25 0.24 96 964.7
20260509182319 54 175 0.0 2.0 0.01 0.25 0.24 95 964.7
20260509181813 54 187 0.0 4.0 0.01 0.25 0.24 96 964.6
20260509181312 54 171 0.0 4.0 0.01 0.25 0.24 96 964.7
20260509180812 54 207 0.0 4.0 0.01 0.25 0.24 95 964.6
20260509180312 54 200 0.0 4.0 0.01 0.25 0.24 95 964.7
20260509175811 55 298 0.0 4.0 0.00 0.24 0.23 95 964.6
20260509175310 55 134 0.0 3.0 0.01 0.24 0.23 95 964.6
20260509174811 55 173 0.0 3.0 0.02 0.24 0.23 96 964.5
20260509174310 55 155 0.0 3.0 0.02 0.24 0.23 96 964.5
20260509173809 55 282 0.0 2.0 0.03 0.24 0.23 96 964.5
20260509173306 55 209 0.0 2.0 0.03 0.24 0.23 96 964.5
20260509173028 55 300 0.0 2.0 0.04 0.24 0.23 97 964.5
20260509172306 54 219 0.0 6.0 0.05 0.24 0.23 97 964.5
20260509171804 54 205 0.0 6.0 0.06 0.24 0.23 97 964.4
20260509171300 54 147 0.0 1.0 0.07 0.24 0.23 98 964.5
20260509170802 53 207 0.0 2.0 0.07 0.24 0.23 98 964.5
20260509170302 53 211 0.0 2.0 0.08 0.24 0.23 98 964.5
20260509165800 53 263 0.0 3.0 0.09 0.24 0.23 97 964.5
20260509165523 53 207 0.0 3.0 0.08 0.23 0.22 97 964.4
20260509164756 53 205 0.0 2.0 0.07 0.22 0.22 97 964.4
20260509164249 53 226 0.0 4.0 0.07 0.22 0.21 97 964.5
20260509164010 53 205 0.0 4.0 0.06 0.21 0.20 97 964.5
20260509163237 53 207 0.0 3.0 0.06 0.21 0.20 97 964.4
20260509162955 53 184 0.0 3.0 0.05 0.20 0.19 97 964.4
20260509162226 53 191 0.0 3.0 0.04 0.19 0.18 96 964.3
20260509161719 53 161 0.0 3.0 0.03 0.18 0.17 96 964.4
20260509161213 53 244 0.0 3.0 0.03 0.17 0.16 96 964.3
20260509160707 53 269 0.0 4.0 0.02 0.16 0.16 96 964.3
20260509160202 53 209 0.0 4.0 0.02 0.16 0.15 96 964.3
20260509155656 53 228 0.0 4.0 0.01 0.15 0.14 96 964.3
20260509155417 53 209 1.0 4.0 0.01 0.15 0.14 96 964.3
20260509154643 53 171 0.0 3.0 0.01 0.15 0.14 96 964.3
20260509154137 53 182 0.0 3.0 0.02 0.15 0.14 96 964.5
20260509153631 53 225 0.0 3.0 0.02 0.15 0.14 96 964.5
20260509153348 53 155 0.0 3.0 0.02 0.15 0.14 96 964.6
20260509152843 53 210 0.0 1.0 0.03 0.15 0.14 95 964.6
20260509152114 53 157 0.0 2.0 0.03 0.15 0.14 96 964.6
20260509151608 53 207 0.0 3.0 0.03 0.15 0.14 95 964.7
20260509151318 53 269 0.0 3.0 0.03 0.14 0.13 95 964.7
20260509150555 53 297 0.0 2.0 0.03 0.14 0.13 95 964.7
20260509150317 53 284 0.0 1.0 0.03 0.14 0.13 95 964.7
20260509145543 53 166 0.0 1.0 0.04 0.14 0.13 95 964.8
20260509145525 52 177 0.0 1.0 0.04 0.14 0.13 95 964.7
20260509144532 52 74 0.0 4.0 0.04 0.14 0.13 95 964.8
20260509144026 52 198 0.0 4.0 0.04 0.13 0.12 94 964.8
20260509143519 52 281 0.0 3.0 0.04 0.13 0.12 94 965.0
20260509143014 53 181 0.0 1.0 0.04 0.13 0.12 95 964.9
20260509142508 52 214 0.0 1.0 0.03 0.12 0.11 95 964.9
20260509142002 52 185 0.0 1.0 0.03 0.12 0.11 95 964.9
20260509141455 52 180 0.0 2.0 0.03 0.12 0.11 95 964.9
20260509140950 52 138 0.0 5.0 0.03 0.11 0.10 94 965.0
20260509140709 52 179 0.0 5.0 0.03 0.11 0.10 94 964.9
20260509135938 52 209 0.0 3.0 0.03 0.11 0.10 94 964.9
20260509135915 52 148 0.0 3.0 0.02 0.10 0.09 94 964.9
20260509134925 52 213 0.0 3.0 0.02 0.10 0.09 94 964.9
20260509134419 52 227 0.0 2.0 0.03 0.10 0.09 94 964.9
20260509133913 51 223 0.0 1.0 0.02 0.09 0.08 94 964.9
20260509133633 51 201 0.0 5.0 0.02 0.09 0.08 94 964.9
20260509132902 51 203 0.0 5.0 0.03 0.09 0.08 94 964.9
20260509132356 51 152 0.0 4.0 0.03 0.09 0.08 94 964.9
20260509132114 51 169 0.0 4.0 0.03 0.09 0.08 94 964.8
20260509131343 51 182 0.0 0.0 0.03 0.09 0.08 95 964.8
20260509130838 51 190 0.0 0.0 0.03 0.08 0.07 94 964.9
20260509130552 51 207 0.0 0.0 0.03 0.08 0.07 95 964.9
20260509125827 50 300 0.0 0.0 0.03 0.08 0.07 94 964.9
20260509125320 50 284 0.0 2.0 0.03 0.08 0.07 94 965.0
20260509125031 50 284 0.0 2.0 0.02 0.07 0.07 94 965.1
20260509124307 50 223 0.0 1.0 0.02 0.07 0.06 95 965.1
20260509123802 50 177 0.0 1.0 0.03 0.07 0.06 94 965.0
20260509123256 50 289 0.0 0.0 0.03 0.07 0.06 94 965.0
20260509122750 50 205 0.0 1.0 0.02 0.06 0.05 95 965.1
20260509122507 50 196 0.0 2.0 0.02 0.06 0.05 95 965.1
20260509121741 50 133 0.0 2.0 0.02 0.06 0.05 95 965.2
20260509121241 49 223 0.0 0.0 0.02 0.05 0.04 96 965.4
20260509120738 49 282 0.0 0.0 0.02 0.05 0.04 97 965.4
20260509120458 49 201 0.0 0.0 0.02 0.05 0.04 97 965.4
20260509115737 49 201 0.0 0.0 0.02 0.05 0.04 97 965.5
20260509115236 49 201 0.0 0.0 0.02 0.05 0.04 97 965.6
20260509114737 49 201 0.0 0.0 0.02 0.05 0.04 97 965.6
20260509114234 49 201 0.0 0.0 0.02 0.05 0.04 97 965.6
20260509113735 49 201 0.0 0.0 0.01 0.04 0.03 97 965.6
20260509113452 48 201 0.0 0.0 0.01 0.04 0.03 97 965.6
20260509112732 48 201 0.0 0.0 0.01 0.04 0.03 97 965.7
20260509112231 48 201 0.0 0.0 0.01 0.04 0.03 97 965.7
20260509111729 48 201 0.0 0.0 0.00 0.03 0.03 97 965.7
20260509111231 48 201 0.0 0.0 0.00 0.03 0.02 97 965.8
20260509110728 48 201 0.0 0.0 0.00 0.03 0.02 97 965.7
20260509110232 48 201 0.0 0.0 0.01 0.03 0.02 97 965.7
20260509105728 48 296 0.0 0.0 0.01 0.03 0.02 97 965.8
20260509105227 48 200 0.0 0.0 0.01 0.03 0.02 97 965.7
20260509104725 48 200 0.0 0.0 0.01 0.03 0.02 97 965.7
20260509104225 48 220 0.0 0.0 0.01 0.03 0.02 97 965.6
20260509103725 48 296 0.0 0.0 0.01 0.03 0.02 97 965.5
20260509103223 48 304 0.0 0.0 0.01 0.03 0.02 97 965.5
20260509102723 48 40 0.0 1.0 0.01 0.03 0.02 97 965.4
20260509102222 48 42 0.0 1.0 0.01 0.03 0.02 97 965.4
20260509101722 48 235 0.0 0.0 0.01 0.03 0.02 97 965.3
20260509101222 48 235 0.0 0.0 0.01 0.03 0.02 97 965.3
20260509100721 48 235 0.0 0.0 0.01 0.03 0.02 97 965.3
20260509100221 48 158 0.0 0.0 0.00 0.02 0.01 97 965.2
20260509095722 48 158 0.0 0.0 0.00 0.02 0.01 96 965.3
20260509095221 49 158 0.0 0.0 0.00 0.02 0.01 96 965.3
20260509094721 49 158 0.0 0.0 0.00 0.02 0.01 96 965.2
20260509094223 49 158 0.0 0.0 0.00 0.02 0.01 96 965.2
20260509093721 49 158 0.0 0.0 0.00 0.02 0.01 96 965.2
20260509093715 49 158 0.0 0.0 0.00 0.02 0.01 96 965.3
20260509092718 49 34 0.0 0.0 0.00 0.02 0.01 96 965.4
20260509092218 49 34 0.0 0.0 0.00 0.02 0.01 95 965.3
20260509091718 49 34 0.0 0.0 0.00 0.02 0.01 95 965.4
20260509091218 49 34 0.0 0.0 0.00 0.02 0.01 95 965.3
20260509090718 49 34 0.0 3.0 0.00 0.02 0.01 95 965.4
20260509090217 49 36 0.0 3.0 0.00 0.02 0.01 95 965.3
20260509085717 49 38 0.0 1.0 0.00 0.02 0.01 95 965.2
20260509085437 49 181 0.0 0.0 0.00 0.02 0.01 95 965.2
20260509084937 49 181 0.0 0.0 0.00 0.02 0.01 94 965.1
20260509084217 49 181 0.0 0.0 0.00 0.02 0.01 94 965.2
20260509083717 49 36 0.0 0.0 0.00 0.02 0.01 94 965.2
20260509083219 49 36 0.0 0.0 0.00 0.02 0.01 94 965.2
20260509082717 49 36 0.0 0.0 0.00 0.02 0.01 94 965.2
20260509082219 49 36 0.0 0.0 0.00 0.02 0.01 94 965.2
20260509081714 49 35 0.0 0.0 0.00 0.02 0.01 94 965.2
20260509081214 49 32 0.0 0.0 0.00 0.02 0.01 94 965.2
20260509080713 49 32 0.0 0.0 0.00 0.02 0.01 94 965.2
20260509080216 49 32 0.0 0.0 0.00 0.02 0.01 95 965.3
20260509075713 49 32 0.0 0.0 0.00 0.02 0.01 95 965.3
20260509075429 49 32 0.0 0.0 0.00 0.02 0.01 94 965.3
20260509074705 49 32 0.0 0.0 0.00 0.02 0.01 95 965.4
20260509074206 49 32 0.0 0.0 0.00 0.02 0.01 95 965.4
20260509073707 49 32 0.0 0.0 0.00 0.02 0.01 95 965.2
20260509073205 49 338 0.0 0.0 0.00 0.02 0.01 95 965.2
20260509072706 49 338 0.0 0.0 0.00 0.02 0.01 95 965.3
20260509072205 49 338 0.0 0.0 0.00 0.02 0.01 95 965.5
20260509071700 49 338 0.0 0.0 0.00 0.02 0.01 95 965.5
20260509071426 49 338 0.0 0.0 0.00 0.02 0.01 95 965.4
20260509070702 49 338 0.0 0.0 0.00 0.02 0.01 95 965.4
20260509070159 49 338 0.0 0.0 0.00 0.02 0.01 95 965.4
20260509065657 49 236 0.0 0.0 0.00 0.02 0.01 95 965.5
20260509065155 49 236 0.0 0.0 0.00 0.02 0.01 95 965.7
20260509064654 49 236 0.0 0.0 0.00 0.02 0.01 95 965.9
20260509064153 49 236 0.0 0.0 0.00 0.02 0.01 95 966.0
20260509063924 49 236 0.0 0.0 0.00 0.02 0.01 95 966.0
20260509063153 49 236 0.0 0.0 0.00 0.02 0.01 94 966.1
20260509063141 49 236 0.0 0.0 0.00 0.02 0.01 94 966.2
20260509062151 49 236 0.0 0.0 0.00 0.02 0.01 94 966.2
20260509061647 49 236 0.0 0.0 0.01 0.02 0.01 94 966.3
20260509061151 49 236 0.0 0.0 0.01 0.02 0.01 94 966.4
20260509060645 49 236 0.0 0.0 0.01 0.02 0.01 94 966.4
20260509060139 49 236 0.0 0.0 0.01 0.02 0.01 94 966.5
20260509055633 49 236 0.0 0.0 0.01 0.02 0.01 95 966.5
20260509055351 49 236 0.0 0.0 0.01 0.02 0.01 95 966.4
20260509054838 49 236 0.0 0.0 0.01 0.02 0.01 95 966.4
20260509054601 49 236 0.0 0.0 0.01 0.02 0.01 94 966.5
20260509053609 49 236 0.0 0.0 0.01 0.02 0.01 95 966.7
20260509053102 49 236 0.0 0.0 0.01 0.02 0.01 95 966.6
20260509052557 49 236 0.0 0.0 0.01 0.02 0.01 94 966.8
20260509052313 49 236 0.0 0.0 0.00 0.01 0.00 94 966.9
20260509051544 49 236 0.0 0.0 0.00 0.01 0.00 94 967.1
20260509051038 49 236 0.0 0.0 0.00 0.01 0.00 94 967.4
20260509050533 49 236 0.0 0.0 0.00 0.01 0.00 94 967.4
20260509050026 49 236 0.0 0.0 0.00 0.01 0.00 93 967.4
20260509045521 49 236 0.0 0.0 0.00 0.01 0.00 93 967.4
20260509045232 49 236 0.0 0.0 0.00 0.01 0.00 93 967.4
20260509044508 49 236 0.0 0.0 0.00 0.01 0.00 93 967.4
20260509044004 49 236 0.0 0.0 0.00 0.01 0.00 94 967.4
20260509043457 50 236 0.0 0.0 0.00 0.01 0.00 94 967.3
20260509042951 50 236 0.0 0.0 0.00 0.01 0.00 93 967.2
20260509042445 50 236 0.0 0.0 0.00 0.01 0.00 93 967.2
20260509041938 50 236 0.0 0.0 0.00 0.01 0.00 93 967.2
20260509041432 50 236 0.0 0.0 0.00 0.01 0.00 92 967.2
20260509040926 50 236 0.0 0.0 0.00 0.01 0.00 92 967.2
20260509040420 50 236 0.0 0.0 0.00 0.01 0.00 92 967.4
20260509040132 50 236 0.0 0.0 0.00 0.01 0.01 91 967.4
20260509035408 50 236 0.0 0.0 0.00 0.01 0.01 91 967.3
20260509034902 50 236 0.0 0.0 0.00 0.01 0.01 90 967.4
20260509034357 50 236 0.0 0.0 0.00 0.01 0.01 91 967.4
20260509033857 50 236 0.0 0.0 0.00 0.01 0.01 91 967.6
20260509033357 50 236 0.0 0.0 0.00 0.01 0.01 90 967.5
20260509032854 50 236 0.0 0.0 0.00 0.01 0.01 90 967.2
20260509032351 50 236 0.0 0.0 0.00 0.01 0.01 89 967.2
20260509031850 50 236 0.0 0.0 0.00 0.01 0.01 89 967.1
20260509031348 50 236 0.0 0.0 0.00 0.01 0.01 89 967.1
20260509031104 50 236 0.0 0.0 0.00 0.01 0.01 89 967.2